Location: Korczew
(51.3586°N, 19.4491°E)
Time: 08:18:57
(UTC+00:00)

ARIANE 5 R/B - Pass Details

Date: 19 May 2025
Orbit: 614 x 648 km, 98.0° (Epoch: 12 June)

Event Time Altitude Azimuth Distance (km) Brightness Sun altitude
Exits shadow 21:23:53 33° 153° (SSE) 1,055 3.2 -16.8°
Maximum altitude 21:25:48 76° 73° (ENE) 645 2.6 -16.9°
Drops below altitude 10° 21:30:09 10° 348° (NNW) 2,007 6.5 -17.1°
Sets 21:32:22 0° 347° (NNW) 2,923 7.8 -17.2°
